Year,Month,Day,Hour,Minute,Value (Times are PST for temperature in C)
2018,08,20,00,00,15.90
2018,08,20,00,01,15.80
2018,08,20,00,02,15.80
2018,08,20,00,03,15.80
2018,08,20,00,04,15.80
2018,08,20,00,05,15.80
2018,08,20,00,06,15.80
2018,08,20,00,07,15.80
2018,08,20,00,08,15.80
2018,08,20,00,09,15.80
2018,08,20,00,10,15.80
2018,08,20,00,11,15.80
2018,08,20,00,12,15.80
2018,08,20,00,13,15.80
2018,08,20,00,14,15.80
2018,08,20,00,15,15.70
2018,08,20,00,16,15.80
2018,08,20,00,17,15.80
2018,08,20,00,18,15.80
2018,08,20,00,19,15.80
2018,08,20,00,20,15.80
2018,08,20,00,21,15.80
2018,08,20,00,22,15.80
2018,08,20,00,23,15.80
2018,08,20,00,24,15.80
2018,08,20,00,25,15.80
2018,08,20,00,26,15.80
2018,08,20,00,27,15.80
2018,08,20,00,28,15.80
2018,08,20,00,29,15.80
2018,08,20,00,30,15.80
2018,08,20,00,31,15.80
2018,08,20,00,32,15.70
2018,08,20,00,33,15.70
2018,08,20,00,34,15.70
2018,08,20,00,35,15.70
2018,08,20,00,36,15.70
2018,08,20,00,37,15.70
2018,08,20,00,38,15.70
2018,08,20,00,39,15.60
2018,08,20,00,40,15.60
2018,08,20,00,41,15.60
2018,08,20,00,42,15.60
2018,08,20,00,43,15.60
2018,08,20,00,44,15.50
2018,08,20,00,45,15.50
2018,08,20,00,46,15.50
2018,08,20,00,47,15.50
2018,08,20,00,48,15.40
2018,08,20,00,49,15.40
2018,08,20,00,50,15.40
2018,08,20,00,51,15.40
2018,08,20,00,52,15.40
2018,08,20,00,53,15.40
2018,08,20,00,54,15.30
2018,08,20,00,55,15.30
2018,08,20,00,56,15.30
2018,08,20,00,57,15.30
2018,08,20,00,58,15.30
2018,08,20,00,59,15.30
2018,08,20,01,00,15.30
2018,08,20,01,01,15.20
2018,08,20,01,02,15.20
2018,08,20,01,03,15.20
2018,08,20,01,04,15.20
2018,08,20,01,05,15.20
2018,08,20,01,06,15.20
2018,08,20,01,07,15.20
2018,08,20,01,08,15.20
2018,08,20,01,09,15.20
2018,08,20,01,10,15.20
2018,08,20,01,11,15.10
2018,08,20,01,12,15.10
2018,08,20,01,13,15.10
2018,08,20,01,14,15.10
2018,08,20,01,15,15.10
2018,08,20,01,16,15.00
2018,08,20,01,17,15.00
2018,08,20,01,18,15.00
2018,08,20,01,19,15.00
2018,08,20,01,20,15.00
2018,08,20,01,21,14.90
2018,08,20,01,22,14.90
2018,08,20,01,23,14.90
2018,08,20,01,24,14.90
2018,08,20,01,25,14.90
2018,08,20,01,26,14.80
2018,08,20,01,27,14.80
2018,08,20,01,28,14.80
2018,08,20,01,29,14.80
2018,08,20,01,30,14.80
2018,08,20,01,31,14.80
2018,08,20,01,32,14.80
2018,08,20,01,33,14.80
2018,08,20,01,34,14.70
2018,08,20,01,35,14.70
2018,08,20,01,36,14.70
2018,08,20,01,37,14.70
2018,08,20,01,38,14.70
2018,08,20,01,39,14.70
2018,08,20,01,40,14.70
2018,08,20,01,41,14.70
2018,08,20,01,42,14.70
2018,08,20,01,43,14.70
2018,08,20,01,44,14.70
2018,08,20,01,45,14.70
2018,08,20,01,46,14.70
2018,08,20,01,47,14.60
2018,08,20,01,48,14.60
2018,08,20,01,49,14.60
2018,08,20,01,50,14.60
2018,08,20,01,51,14.60
2018,08,20,01,52,14.60
2018,08,20,01,53,14.60
2018,08,20,01,54,14.60
2018,08,20,01,55,14.50
2018,08,20,01,56,14.50
2018,08,20,01,57,14.50
2018,08,20,01,58,14.50
2018,08,20,01,59,14.40
2018,08,20,02,00,14.40
2018,08,20,02,01,14.40
2018,08,20,02,02,14.40
2018,08,20,02,03,14.40
2018,08,20,02,04,14.40
2018,08,20,02,05,14.30
2018,08,20,02,06,14.30
2018,08,20,02,07,14.30
2018,08,20,02,08,14.30
2018,08,20,02,09,14.30
2018,08,20,02,10,14.30
2018,08,20,02,11,14.30
2018,08,20,02,12,14.30
2018,08,20,02,13,14.30
2018,08,20,02,14,14.20
2018,08,20,02,15,14.20
2018,08,20,02,16,14.20
2018,08,20,02,17,14.20
2018,08,20,02,18,14.20
2018,08,20,02,19,14.20
2018,08,20,02,20,14.20
2018,08,20,02,21,14.20
2018,08,20,02,22,14.10
2018,08,20,02,23,14.10
2018,08,20,02,24,14.10
2018,08,20,02,25,14.10
2018,08,20,02,26,14.10
2018,08,20,02,27,14.10
2018,08,20,02,28,14.10
2018,08,20,02,29,14.10
2018,08,20,02,30,14.00
2018,08,20,02,31,14.00
2018,08,20,02,32,14.00
2018,08,20,02,33,14.00
2018,08,20,02,34,13.90
2018,08,20,02,35,13.90
2018,08,20,02,36,13.90
2018,08,20,02,37,13.90
2018,08,20,02,38,13.90
2018,08,20,02,39,13.80
2018,08,20,02,40,13.80
2018,08,20,02,41,13.80
2018,08,20,02,42,13.80
2018,08,20,02,43,13.80
2018,08,20,02,44,13.80
2018,08,20,02,45,13.80
2018,08,20,02,46,13.70
2018,08,20,02,47,13.70
2018,08,20,02,48,13.70
2018,08,20,02,49,13.70
2018,08,20,02,50,13.70
2018,08,20,02,51,13.70
2018,08,20,02,52,13.70
2018,08,20,02,53,13.70
2018,08,20,02,54,13.70
2018,08,20,02,55,13.60
2018,08,20,02,56,13.60
2018,08,20,02,57,13.60
2018,08,20,02,58,13.60
2018,08,20,02,59,13.60
2018,08,20,03,00,13.60
2018,08,20,03,01,13.60
2018,08,20,03,02,13.60
2018,08,20,03,03,13.60
2018,08,20,03,04,13.60
2018,08,20,03,05,13.50
2018,08,20,03,06,13.50
2018,08,20,03,07,13.50
2018,08,20,03,08,13.50
2018,08,20,03,09,13.50
2018,08,20,03,10,13.40
2018,08,20,03,11,13.40
2018,08,20,03,12,13.40
2018,08,20,03,13,13.40
2018,08,20,03,14,13.40
2018,08,20,03,15,13.40
2018,08,20,03,16,13.40
2018,08,20,03,17,13.40
2018,08,20,03,18,13.40
2018,08,20,03,19,13.30
2018,08,20,03,20,13.30
2018,08,20,03,21,13.30
2018,08,20,03,22,13.30
2018,08,20,03,23,13.30
2018,08,20,03,24,13.30
2018,08,20,03,25,13.30
2018,08,20,03,26,13.30
2018,08,20,03,27,13.20
2018,08,20,03,28,13.20
2018,08,20,03,29,13.20
2018,08,20,03,30,13.20
2018,08,20,03,31,13.20
2018,08,20,03,32,13.20
2018,08,20,03,33,13.20
2018,08,20,03,34,13.20
2018,08,20,03,35,13.10
2018,08,20,03,36,13.10
2018,08,20,03,37,13.10
2018,08,20,03,38,13.10
2018,08,20,03,39,13.10
2018,08,20,03,40,13.10
2018,08,20,03,41,13.10
2018,08,20,03,42,13.10
2018,08,20,03,43,13.00
2018,08,20,03,44,13.00
2018,08,20,03,45,13.00
2018,08,20,03,46,13.00
2018,08,20,03,47,13.00
2018,08,20,03,48,13.00
2018,08,20,03,49,12.90
2018,08,20,03,50,12.90
2018,08,20,03,51,12.90
2018,08,20,03,52,12.90
2018,08,20,03,53,12.90
2018,08,20,03,54,12.90
2018,08,20,03,55,12.90
2018,08,20,03,56,12.90
2018,08,20,03,57,12.90
2018,08,20,03,58,12.90
2018,08,20,03,59,12.90
2018,08,20,04,00,12.90
2018,08,20,04,01,12.90
2018,08,20,04,02,12.90
2018,08,20,04,03,12.90
2018,08,20,04,04,12.90
2018,08,20,04,05,12.90
2018,08,20,04,06,12.80
2018,08,20,04,07,12.80
2018,08,20,04,08,12.80
2018,08,20,04,09,12.80
2018,08,20,04,10,12.80
2018,08,20,04,11,12.80
2018,08,20,04,12,12.80
2018,08,20,04,13,12.80
2018,08,20,04,14,12.70
2018,08,20,04,15,12.70
2018,08,20,04,16,12.70
2018,08,20,04,17,12.70
2018,08,20,04,18,12.70
2018,08,20,04,19,12.70
2018,08,20,04,20,12.70
2018,08,20,04,21,12.70
2018,08,20,04,22,12.60
2018,08,20,04,23,12.60
2018,08,20,04,24,12.60
2018,08,20,04,25,12.60
2018,08,20,04,26,12.60
2018,08,20,04,27,12.60
2018,08,20,04,28,12.60
2018,08,20,04,29,12.60
2018,08,20,04,30,12.60
2018,08,20,04,31,12.60
2018,08,20,04,32,12.60
2018,08,20,04,33,12.50
2018,08,20,04,34,12.50
2018,08,20,04,35,12.50
2018,08,20,04,36,12.50
2018,08,20,04,37,12.50
2018,08,20,04,38,12.50
2018,08,20,04,39,12.50
2018,08,20,04,40,12.50
2018,08,20,04,41,12.50
2018,08,20,04,42,12.50
2018,08,20,04,43,12.50
2018,08,20,04,44,12.50
2018,08,20,04,45,12.50
2018,08,20,04,46,12.40
2018,08,20,04,47,12.40
2018,08,20,04,48,12.40
2018,08,20,04,49,12.40
2018,08,20,04,50,12.40
2018,08,20,04,51,12.40
2018,08,20,04,52,12.40
2018,08,20,04,53,12.40
2018,08,20,04,54,12.40
2018,08,20,04,55,12.40
2018,08,20,04,56,12.40
2018,08,20,04,57,12.40
2018,08,20,04,58,12.40
2018,08,20,04,59,12.40
2018,08,20,05,00,12.40
2018,08,20,05,01,12.40
2018,08,20,05,02,12.40
2018,08,20,05,03,12.30
2018,08,20,05,04,12.30
2018,08,20,05,05,12.30
2018,08,20,05,06,12.30
2018,08,20,05,07,12.30
2018,08,20,05,08,12.30
2018,08,20,05,09,12.30
2018,08,20,05,10,12.30
2018,08,20,05,11,12.30
2018,08,20,05,12,12.30
2018,08,20,05,13,12.30
2018,08,20,05,14,12.30
2018,08,20,05,15,12.30
2018,08,20,05,16,12.30
2018,08,20,05,17,12.30
2018,08,20,05,18,12.30
2018,08,20,05,19,12.30
2018,08,20,05,20,12.30
2018,08,20,05,21,12.20
2018,08,20,05,22,12.20
2018,08,20,05,23,12.20
2018,08,20,05,24,12.20
2018,08,20,05,25,12.20
2018,08,20,05,26,12.20
2018,08,20,05,27,12.20
2018,08,20,05,28,12.20
2018,08,20,05,29,12.20
2018,08,20,05,30,12.20
2018,08,20,05,31,12.20
2018,08,20,05,32,12.20
2018,08,20,05,33,12.20
2018,08,20,05,34,12.20
2018,08,20,05,35,12.20
2018,08,20,05,36,12.20
2018,08,20,05,37,12.20
2018,08,20,05,38,12.20
2018,08,20,05,39,12.10
2018,08,20,05,40,12.10
2018,08,20,05,41,12.10
2018,08,20,05,42,12.10
2018,08,20,05,43,12.10
2018,08,20,05,44,12.10
2018,08,20,05,45,12.00
2018,08,20,05,46,12.00
2018,08,20,05,47,12.00
2018,08,20,05,48,12.00
2018,08,20,05,49,12.00
2018,08,20,05,50,12.00
2018,08,20,05,51,12.00
2018,08,20,05,52,11.90
2018,08,20,05,53,11.90
2018,08,20,05,54,11.90
2018,08,20,05,55,11.90
2018,08,20,05,56,11.90
2018,08,20,05,57,11.90
2018,08,20,05,58,11.90
2018,08,20,05,59,11.90
2018,08,20,06,00,11.90
2018,08,20,06,01,11.90
2018,08,20,06,02,11.90
2018,08,20,06,03,11.90
2018,08,20,06,04,11.90
2018,08,20,06,05,11.90
2018,08,20,06,06,11.90
2018,08,20,06,07,11.90
2018,08,20,06,08,11.80
2018,08,20,06,09,11.80
2018,08,20,06,10,11.80
2018,08,20,06,11,11.80
2018,08,20,06,12,11.80
2018,08,20,06,13,11.80
2018,08,20,06,14,11.80
2018,08,20,06,15,11.80
2018,08,20,06,16,11.80
2018,08,20,06,17,11.70
2018,08,20,06,18,11.70
2018,08,20,06,19,11.70
2018,08,20,06,20,11.70
2018,08,20,06,21,11.70
2018,08,20,06,22,11.70
2018,08,20,06,23,11.70
2018,08,20,06,24,11.70
2018,08,20,06,25,11.70
2018,08,20,06,26,11.70
2018,08,20,06,27,11.70
2018,08,20,06,28,11.70
2018,08,20,06,29,11.60
2018,08,20,06,30,11.60
2018,08,20,06,31,11.60
2018,08,20,06,32,11.60
2018,08,20,06,33,11.60
2018,08,20,06,34,11.60
2018,08,20,06,35,11.60
2018,08,20,06,36,11.60
2018,08,20,06,37,11.60
2018,08,20,06,38,11.60
2018,08,20,06,39,11.60
2018,08,20,06,40,11.60
2018,08,20,06,41,11.60
2018,08,20,06,42,11.60
2018,08,20,06,43,11.60
2018,08,20,06,44,11.60
2018,08,20,06,45,11.60
2018,08,20,06,46,11.60
2018,08,20,06,47,11.60
2018,08,20,06,48,11.60
2018,08,20,06,49,11.60
2018,08,20,06,50,11.60
2018,08,20,06,51,11.60
2018,08,20,06,52,11.50
2018,08,20,06,53,11.50
2018,08,20,06,54,11.50
2018,08,20,06,55,11.50
2018,08,20,06,56,11.50
2018,08,20,06,57,11.50
2018,08,20,06,58,11.50
2018,08,20,06,59,11.50
2018,08,20,07,00,11.50
2018,08,20,07,01,11.50
2018,08,20,07,02,11.50
2018,08,20,07,03,11.60
2018,08,20,07,04,11.60
2018,08,20,07,05,11.60
2018,08,20,07,06,11.60
2018,08,20,07,07,11.60
2018,08,20,07,08,11.60
2018,08,20,07,09,11.60
2018,08,20,07,10,11.60
2018,08,20,07,11,11.60
2018,08,20,07,12,11.60
2018,08,20,07,13,11.60
2018,08,20,07,14,11.60
2018,08,20,07,15,11.60
2018,08,20,07,16,11.60
2018,08,20,07,17,11.60
2018,08,20,07,18,11.60
2018,08,20,07,19,11.60
2018,08,20,07,20,11.60
2018,08,20,07,21,11.60
2018,08,20,07,22,11.60
2018,08,20,07,23,11.60
2018,08,20,07,24,11.60
2018,08,20,07,25,11.60
2018,08,20,07,26,11.60
2018,08,20,07,27,11.60
2018,08,20,07,28,11.60
2018,08,20,07,29,11.60
2018,08,20,07,30,11.60
2018,08,20,07,31,11.60
2018,08,20,07,32,11.60
2018,08,20,07,33,11.60
2018,08,20,07,34,11.60
2018,08,20,07,35,11.70
2018,08,20,07,36,11.70
2018,08,20,07,37,11.70
2018,08,20,07,38,11.70
2018,08,20,07,39,11.70
2018,08,20,07,40,11.70
2018,08,20,07,41,11.70
2018,08,20,07,42,11.70
2018,08,20,07,43,11.70
2018,08,20,07,44,11.80
2018,08,20,07,45,11.80
2018,08,20,07,46,11.80
2018,08,20,07,47,11.80
2018,08,20,07,48,11.80
2018,08,20,07,49,11.80
2018,08,20,07,50,11.80
2018,08,20,07,51,11.90
2018,08,20,07,52,11.90
2018,08,20,07,53,11.90
2018,08,20,07,54,11.90
2018,08,20,07,55,11.90
2018,08,20,07,56,11.90
2018,08,20,07,57,12.00
2018,08,20,07,58,12.00
2018,08,20,07,59,12.00
2018,08,20,08,00,12.00
2018,08,20,08,01,12.10
2018,08,20,08,02,12.10
2018,08,20,08,03,12.10
2018,08,20,08,04,12.10
2018,08,20,08,05,12.10
2018,08,20,08,06,12.20
2018,08,20,08,07,12.20
2018,08,20,08,08,12.20
2018,08,20,08,09,12.20
2018,08,20,08,11,12.30
2018,08,20,08,12,12.30
2018,08,20,08,13,12.30
2018,08,20,08,14,12.30
2018,08,20,08,15,12.40
2018,08,20,08,16,12.40
2018,08,20,08,17,12.40
2018,08,20,08,18,12.40
2018,08,20,08,19,12.40
2018,08,20,08,20,12.50
2018,08,20,08,21,12.50
2018,08,20,08,22,12.60
2018,08,20,08,23,12.60
2018,08,20,08,24,12.60
2018,08,20,08,25,12.70
2018,08,20,08,26,12.70
2018,08,20,08,27,12.70
2018,08,20,08,28,12.70
2018,08,20,08,29,12.70
2018,08,20,08,30,12.70
2018,08,20,08,31,12.70
2018,08,20,08,32,12.80
2018,08,20,08,33,12.80
2018,08,20,08,34,12.80
2018,08,20,08,35,12.80
2018,08,20,08,36,12.80
2018,08,20,08,37,12.90
2018,08,20,08,38,12.90
2018,08,20,08,39,12.90
2018,08,20,08,40,13.00
2018,08,20,08,41,13.00
2018,08,20,08,42,13.10
2018,08,20,08,43,13.10
2018,08,20,08,44,13.10
2018,08,20,08,45,13.10
2018,08,20,08,46,13.20
2018,08,20,08,47,13.20
2018,08,20,08,48,13.20
2018,08,20,08,49,13.30
2018,08,20,08,50,13.30
2018,08,20,08,51,13.30
2018,08,20,08,52,13.30
2018,08,20,08,53,13.40
2018,08,20,08,54,13.40
2018,08,20,08,55,13.40
2018,08,20,08,56,13.40
2018,08,20,08,57,13.50
2018,08,20,08,58,13.50
2018,08,20,08,59,13.60
2018,08,20,09,00,13.60
2018,08,20,09,01,13.70
2018,08,20,09,02,13.70
2018,08,20,09,03,13.70
2018,08,20,09,04,13.80
2018,08,20,09,05,13.80
2018,08,20,09,06,13.80
2018,08,20,09,07,13.80
2018,08,20,09,08,13.90
2018,08,20,09,09,13.90
2018,08,20,09,10,13.90
2018,08,20,09,11,14.00
2018,08,20,09,12,14.00
2018,08,20,09,13,14.00
2018,08,20,09,14,14.10
2018,08,20,09,15,14.10
2018,08,20,09,16,14.10
2018,08,20,09,17,14.20
2018,08,20,09,18,14.20
2018,08,20,09,19,14.30
2018,08,20,09,20,14.30
2018,08,20,09,21,14.30
2018,08,20,09,22,14.40
2018,08,20,09,23,14.40
2018,08,20,09,24,14.40
2018,08,20,09,25,14.40
2018,08,20,09,26,14.50
2018,08,20,09,27,14.50
2018,08,20,09,28,14.50
2018,08,20,09,29,14.50
2018,08,20,09,30,14.50
2018,08,20,09,31,14.60
2018,08,20,09,32,14.60
2018,08,20,09,33,14.60
2018,08,20,09,34,14.60
2018,08,20,09,35,14.60
2018,08,20,09,36,14.60
2018,08,20,09,37,14.70
2018,08,20,09,38,14.70
2018,08,20,09,39,14.80
2018,08,20,09,40,14.80
2018,08,20,09,41,14.90
2018,08,20,09,42,15.00
2018,08,20,09,43,15.00
2018,08,20,09,44,15.10
2018,08,20,09,45,15.10
2018,08,20,09,46,15.20
2018,08,20,09,47,15.20
2018,08,20,09,48,15.30
2018,08,20,09,49,15.30
2018,08,20,09,50,15.40
2018,08,20,09,51,15.40
2018,08,20,09,52,15.50
2018,08,20,09,53,15.60
2018,08,20,09,54,15.60
2018,08,20,09,55,15.60
2018,08,20,09,56,15.70
2018,08,20,09,57,15.70
2018,08,20,09,58,15.80
2018,08,20,09,59,15.80
2018,08,20,10,00,15.80
2018,08,20,10,01,15.90
2018,08,20,10,02,15.90
2018,08,20,10,03,16.00
2018,08,20,10,04,16.00
2018,08,20,10,05,16.10
2018,08,20,10,06,16.10
2018,08,20,10,07,16.20
2018,08,20,10,08,16.20
2018,08,20,10,09,16.30
2018,08,20,10,10,16.30
2018,08,20,10,11,16.30
2018,08,20,10,12,16.40
2018,08,20,10,13,16.40
2018,08,20,10,14,16.40
2018,08,20,10,15,16.50
2018,08,20,10,16,16.50
2018,08,20,10,17,16.60
2018,08,20,10,18,16.60
2018,08,20,10,19,16.60
2018,08,20,10,20,16.70
2018,08,20,10,21,16.70
2018,08,20,10,22,16.70
2018,08,20,10,23,16.70
2018,08,20,10,24,16.80
2018,08,20,10,25,16.80
2018,08,20,10,26,16.80
2018,08,20,10,27,16.90
2018,08,20,10,28,16.90
2018,08,20,10,29,17.00
2018,08,20,10,30,17.00
2018,08,20,10,31,17.10
2018,08,20,10,32,17.10
2018,08,20,10,33,17.10
2018,08,20,10,34,17.10
2018,08,20,10,35,17.10
2018,08,20,10,36,17.20
2018,08,20,10,37,17.20
2018,08,20,10,38,17.20
2018,08,20,10,39,17.20
2018,08,20,10,40,17.20
2018,08,20,10,41,17.20
2018,08,20,10,42,17.30
2018,08,20,10,43,17.30
2018,08,20,10,44,17.30
2018,08,20,10,45,17.40
2018,08,20,10,46,17.40
2018,08,20,10,47,17.50
2018,08,20,10,48,17.50
2018,08,20,10,49,17.50
2018,08,20,10,50,17.60
2018,08,20,10,51,17.60
2018,08,20,10,52,17.70
2018,08,20,10,53,17.70
2018,08,20,10,54,17.80
2018,08,20,10,55,17.80
2018,08,20,10,56,17.90
2018,08,20,10,57,18.00
2018,08,20,10,58,18.00
2018,08,20,10,59,18.00
2018,08,20,11,00,18.10
2018,08,20,11,01,18.10
2018,08,20,11,02,18.10
2018,08,20,11,03,18.10
2018,08,20,11,04,18.10
2018,08,20,11,05,18.20
2018,08,20,11,06,18.20
2018,08,20,11,07,18.20
2018,08,20,11,08,18.20
2018,08,20,11,09,18.20
2018,08,20,11,10,18.20
2018,08,20,11,11,18.20
2018,08,20,11,12,18.30
2018,08,20,11,13,18.30
2018,08,20,11,14,18.40
2018,08,20,11,15,18.40
2018,08,20,11,16,18.50
2018,08,20,11,17,18.60
2018,08,20,11,18,18.60
2018,08,20,11,19,18.60
2018,08,20,11,20,18.70
2018,08,20,11,21,18.80
2018,08,20,11,22,18.80
2018,08,20,11,23,18.90
2018,08,20,11,24,19.00
2018,08,20,11,25,19.00
2018,08,20,11,26,19.10
2018,08,20,11,27,19.10
2018,08,20,11,28,19.20
2018,08,20,11,29,19.20
2018,08,20,11,30,19.30
2018,08,20,11,31,19.30
2018,08,20,11,32,19.30
2018,08,20,11,33,19.30
2018,08,20,11,34,19.30
2018,08,20,11,35,19.40
2018,08,20,11,36,19.40
2018,08,20,11,37,19.40
2018,08,20,11,38,19.40
2018,08,20,11,39,19.40
2018,08,20,11,40,19.50
2018,08,20,11,41,19.50
2018,08,20,11,42,19.60
2018,08,20,11,43,19.60
2018,08,20,11,44,19.60
2018,08,20,11,45,19.70
2018,08,20,11,46,19.70
2018,08,20,11,47,19.70
2018,08,20,11,48,19.80
2018,08,20,11,49,19.80
2018,08,20,11,50,19.80
2018,08,20,11,51,19.80
2018,08,20,11,52,19.90
2018,08,20,11,53,19.90
2018,08,20,11,54,19.90
2018,08,20,11,55,20.00
2018,08,20,11,56,20.00
2018,08,20,11,57,20.00
2018,08,20,11,58,20.00
2018,08,20,11,59,20.10
2018,08,20,12,00,20.10
2018,08,20,12,01,20.10
2018,08,20,12,02,20.10
2018,08,20,12,03,20.10
2018,08,20,12,04,20.20
2018,08,20,12,05,20.20
2018,08,20,12,06,20.20
2018,08,20,12,07,20.20
2018,08,20,12,08,20.30
2018,08,20,12,09,20.30
2018,08,20,12,10,20.40
2018,08,20,12,11,20.50
2018,08,20,12,12,20.60
2018,08,20,12,13,20.70
2018,08,20,12,14,20.80
2018,08,20,12,15,20.80
2018,08,20,12,16,20.90
2018,08,20,12,17,21.00
2018,08,20,12,18,21.10
2018,08,20,12,19,21.10
2018,08,20,12,20,21.20
2018,08,20,12,21,21.30
2018,08,20,12,22,21.40
2018,08,20,12,23,21.50
2018,08,20,12,24,21.60
2018,08,20,12,25,21.60
2018,08,20,12,26,21.70
2018,08,20,12,27,21.70
2018,08,20,12,28,21.70
2018,08,20,12,29,21.70
2018,08,20,12,30,21.70
2018,08,20,12,31,21.70
2018,08,20,12,32,21.70
2018,08,20,12,33,21.80
2018,08,20,12,34,21.80
2018,08,20,12,35,21.80
2018,08,20,12,36,21.80
2018,08,20,12,37,21.90
2018,08,20,12,38,21.90
2018,08,20,12,39,21.90
2018,08,20,12,40,22.00
2018,08,20,12,41,22.00
2018,08,20,12,42,22.00
2018,08,20,12,43,22.00
2018,08,20,12,44,22.00
2018,08,20,12,45,22.10
2018,08,20,12,46,22.10
2018,08,20,12,47,22.20
2018,08,20,12,48,22.30
2018,08,20,12,49,22.30
2018,08,20,12,50,22.40
2018,08,20,12,51,22.50
2018,08,20,12,52,22.50
2018,08,20,12,53,22.60
2018,08,20,12,54,22.60
2018,08,20,12,55,22.70
2018,08,20,12,56,22.70
2018,08,20,12,57,22.80
2018,08,20,12,58,22.80
2018,08,20,12,59,22.80
2018,08,20,13,00,22.80
2018,08,20,13,01,22.80
2018,08,20,13,02,22.80
2018,08,20,13,03,22.90
2018,08,20,13,04,22.90
2018,08,20,13,05,23.00
2018,08,20,13,06,23.00
2018,08,20,13,07,23.10
2018,08,20,13,08,23.10
2018,08,20,13,09,23.20
2018,08,20,13,10,23.20
2018,08,20,13,11,23.30
2018,08,20,13,12,23.40
2018,08,20,13,13,23.50
2018,08,20,13,14,23.60
2018,08,20,13,15,23.70
2018,08,20,13,16,23.80
2018,08,20,13,17,23.90
2018,08,20,13,18,24.00
2018,08,20,13,19,24.00
2018,08,20,13,20,24.10
2018,08,20,13,21,24.10
2018,08,20,13,22,24.20
2018,08,20,13,23,24.20
2018,08,20,13,24,24.20
2018,08,20,13,25,24.20
2018,08,20,13,26,24.20
2018,08,20,13,27,24.20
2018,08,20,13,28,24.30
2018,08,20,13,29,24.30
2018,08,20,13,30,24.40
2018,08,20,13,31,24.50
2018,08,20,13,32,24.50
2018,08,20,13,33,24.60
2018,08,20,13,34,24.60
2018,08,20,13,35,24.60
2018,08,20,13,36,24.70
2018,08,20,13,37,24.70
2018,08,20,13,38,24.70
2018,08,20,13,39,24.80
2018,08,20,13,40,24.80
2018,08,20,13,41,24.90
2018,08,20,13,42,24.90
2018,08,20,13,43,25.00
2018,08,20,13,44,25.00
2018,08,20,13,45,25.00
2018,08,20,13,46,25.10
2018,08,20,13,47,25.10
2018,08,20,13,48,25.10
2018,08,20,13,49,25.10
2018,08,20,13,50,25.10
2018,08,20,13,51,25.10
2018,08,20,13,52,25.10
2018,08,20,13,53,25.20
2018,08,20,13,54,25.20
2018,08,20,13,55,25.20
2018,08,20,13,56,25.30
2018,08,20,13,57,25.30
2018,08,20,13,58,25.30
2018,08,20,13,59,25.30
2018,08,20,14,00,25.30
2018,08,20,14,01,25.30
2018,08,20,14,02,25.30
2018,08,20,14,03,25.30
2018,08,20,14,04,25.30
2018,08,20,14,05,25.40
2018,08,20,14,06,25.40
2018,08,20,14,07,25.40
2018,08,20,14,08,25.40
2018,08,20,14,09,25.40
2018,08,20,14,10,25.40
2018,08,20,14,11,25.40
2018,08,20,14,12,25.50
2018,08,20,14,13,25.40
2018,08,20,14,14,25.50
2018,08,20,14,15,25.50
2018,08,20,14,16,25.50
2018,08,20,14,17,25.50
2018,08,20,14,18,25.50
2018,08,20,14,19,25.60
2018,08,20,14,20,25.60
2018,08,20,14,21,25.60
2018,08,20,14,22,25.60
2018,08,20,14,23,25.70
2018,08,20,14,24,25.70
2018,08,20,14,25,25.80
2018,08,20,14,26,25.80
2018,08,20,14,27,25.80
2018,08,20,14,28,25.90
2018,08,20,14,29,25.90
2018,08,20,14,30,26.00
2018,08,20,14,31,26.10
2018,08,20,14,32,26.10
2018,08,20,14,33,26.20
2018,08,20,14,34,26.30
2018,08,20,14,35,26.30
2018,08,20,14,36,26.40
2018,08,20,14,37,26.40
2018,08,20,14,38,26.40
2018,08,20,14,39,26.50
2018,08,20,14,40,26.50
2018,08,20,14,41,26.60
2018,08,20,14,42,26.60
2018,08,20,14,43,26.60
2018,08,20,14,44,26.70
2018,08,20,14,45,26.70
2018,08,20,14,46,26.80
2018,08,20,14,47,26.90
2018,08,20,14,48,26.90
2018,08,20,14,49,27.00
2018,08,20,14,50,27.10
2018,08,20,14,51,27.10
2018,08,20,14,52,27.20
2018,08,20,14,53,27.20
2018,08,20,14,54,27.30
2018,08,20,14,55,27.30
2018,08,20,14,56,27.40
2018,08,20,14,57,27.50
2018,08,20,14,58,27.60
2018,08,20,14,59,27.60
2018,08,20,15,00,27.70
2018,08,20,15,01,27.80
2018,08,20,15,02,27.80
2018,08,20,15,03,27.90
2018,08,20,15,04,27.90
2018,08,20,15,05,28.00
2018,08,20,15,06,28.10
2018,08,20,15,07,28.10
2018,08,20,15,08,28.10
2018,08,20,15,09,28.10
2018,08,20,15,10,28.20
2018,08,20,15,11,28.20
2018,08,20,15,12,28.20
2018,08,20,15,13,28.30
2018,08,20,15,14,28.30
2018,08,20,15,15,28.30
2018,08,20,15,16,28.30
2018,08,20,15,17,28.40
2018,08,20,15,18,28.40
2018,08,20,15,19,28.40
2018,08,20,15,20,28.40
2018,08,20,15,21,28.40
2018,08,20,15,22,28.40
2018,08,20,15,23,28.30
2018,08,20,15,24,28.20
2018,08,20,15,25,28.10
2018,08,20,15,26,28.10
2018,08,20,15,27,28.00
2018,08,20,15,28,27.90
2018,08,20,15,29,27.80
2018,08,20,15,30,27.80
2018,08,20,15,31,27.80
2018,08,20,15,32,27.70
2018,08,20,15,33,27.70
2018,08,20,15,34,27.70
2018,08,20,15,35,27.70
2018,08,20,15,36,27.70
2018,08,20,15,37,27.70
2018,08,20,15,38,27.70
2018,08,20,15,39,27.70
2018,08,20,15,40,27.70
2018,08,20,15,41,27.70
2018,08,20,15,42,27.70
2018,08,20,15,43,27.70
2018,08,20,15,44,27.80
2018,08,20,15,45,27.80
2018,08,20,15,46,27.80
2018,08,20,15,47,27.80
2018,08,20,15,48,27.90
2018,08,20,15,49,27.90
2018,08,20,15,50,27.80
2018,08,20,15,51,27.80
2018,08,20,15,52,27.80
2018,08,20,15,53,27.80
2018,08,20,15,54,27.80
2018,08,20,15,55,27.80
2018,08,20,15,56,27.80
2018,08,20,15,57,27.80
2018,08,20,15,58,27.80
2018,08,20,15,59,27.70
2018,08,20,16,00,27.70
2018,08,20,16,01,27.70
2018,08,20,16,02,27.70
2018,08,20,16,03,27.70
2018,08,20,16,04,27.70
2018,08,20,16,05,27.70
2018,08,20,16,06,27.70
2018,08,20,16,07,27.70
2018,08,20,16,08,27.70
2018,08,20,16,09,27.70
2018,08,20,16,10,27.70
2018,08,20,16,11,27.70
2018,08,20,16,12,27.70
2018,08,20,16,13,27.70
2018,08,20,16,14,27.70
2018,08,20,16,15,27.70
2018,08,20,16,16,27.70
2018,08,20,16,17,27.70
2018,08,20,16,18,27.60
2018,08,20,16,19,27.60
2018,08,20,16,20,27.60
2018,08,20,16,21,27.60
2018,08,20,16,22,27.60
2018,08,20,16,23,27.60
2018,08,20,16,24,27.60
2018,08,20,16,25,27.60
2018,08,20,16,26,27.60
2018,08,20,16,27,27.60
2018,08,20,16,28,27.60
2018,08,20,16,29,27.60
2018,08,20,16,30,27.60
2018,08,20,16,31,27.50
2018,08,20,16,32,27.50
2018,08,20,16,33,27.50
2018,08,20,16,34,27.50
2018,08,20,16,35,27.50
2018,08,20,16,36,27.40
2018,08,20,16,37,27.40
2018,08,20,16,38,27.40
2018,08,20,16,39,27.40
2018,08,20,16,40,27.40
2018,08,20,16,41,27.40
2018,08,20,16,42,27.40
2018,08,20,16,43,27.40
2018,08,20,16,44,27.30
2018,08,20,16,45,27.30
2018,08,20,16,46,27.30
2018,08,20,16,47,27.30
2018,08,20,16,48,27.30
2018,08,20,16,49,27.30
2018,08,20,16,50,27.30
2018,08,20,16,51,27.30
2018,08,20,16,52,27.30
2018,08,20,16,53,27.20
2018,08,20,16,54,27.20
2018,08,20,16,55,27.20
2018,08,20,16,56,27.20
2018,08,20,16,57,27.20
2018,08,20,16,58,27.20
2018,08,20,16,59,27.20
2018,08,20,17,00,27.20
2018,08,20,17,01,27.20
2018,08,20,17,02,27.20
2018,08,20,17,03,27.20
2018,08,20,17,04,27.20
2018,08,20,17,05,27.20
2018,08,20,17,06,27.20
2018,08,20,17,07,27.10
2018,08,20,17,08,27.10
2018,08,20,17,09,27.10
2018,08,20,17,10,27.10
2018,08,20,17,11,27.10
2018,08,20,17,12,27.10
2018,08,20,17,13,27.10
2018,08,20,17,14,27.00
2018,08,20,17,15,27.00
2018,08,20,17,16,27.00
2018,08,20,17,17,26.90
2018,08,20,17,18,26.90
2018,08,20,17,19,26.90
2018,08,20,17,20,26.90